Simultaneous Nadir Overpasses (SNOs) Predictions

Prediction of SNOs between AURA and NPP Satellite Orbit:

Table of predicted SNOs for the next 14.0 days since TLE Epoch: 4/8/2023
Index Date (AURA) Time (AURA) Lat,Lon (AURA) SZA (AURA ) Date (NPP) Time (NPP) Lat,Lon (NPP) SZA (NPP ) Distance(km) Time Diff (sec)
1 04/10/2023 07:13:33 79.29, -32.23 84.88 04/10/2023 07:13:23 79.28, -32.31 84.90 1.65 10
2 04/10/2023 08:02:51 -79.62, 137.73 95.63 04/10/2023 08:03:58 -79.63, 137.82 95.70 1.90 67
3 04/12/2023 22:40:00 -79.27, -83.94 96.09 04/12/2023 22:39:36 -79.27, -83.98 96.06 0.84 24
4 04/12/2023 23:29:18 79.54, 85.55 83.51 04/12/2023 23:30:12 79.55, 85.60 83.46 1.03 54
5 04/15/2023 14:06:25 79.21,-135.90 83.03 04/15/2023 14:05:49 79.21,-135.97 83.07 1.72 36
6 04/15/2023 14:55:44 -79.52, 33.79 97.43 04/15/2023 14:56:25 -79.53, 33.88 97.48 2.04 41
7 04/18/2023 05:32:50 -79.19, 172.33 97.89 04/18/2023 05:32:02 -79.18, 172.31 97.85 0.48 48
8 04/18/2023 06:22:07 79.49, -17.98 81.67 04/18/2023 06:22:37 79.50, -17.92 81.63 1.30 30
9 04/20/2023 20:59:12 79.11, 120.26 81.30 04/20/2023 20:58:14 79.10, 120.20 81.36 1.33 58



Historial Predications of SNOs between AURA and NPP
